Regional Weather Roundup
Issued by NWS Goodland, KS

Home | Current Version | Previous Version | Text Only | Print | Product List | Glossary Off
Versions: 1 2 3 4 5 6 7 8 9 10 11 12 13 14 15 16 17 18 19 20 21 22 23 24 25 26 27 28 29 30 31 32 33 34 35 36 37 38 39 40 41 42 43 44 45 46 47 48 49 50

065
ASUS43 KGLD 281908
RWRGLD

GOODLAND FORECAST AREA HOURLY WEATHER ROUNDUP
NATIONAL WEATHER SERVICE GOODLAND KS
100 PM MDT SUN MAY 28 2017

...OFFICIAL OBSERVATIONS...

CITY           SKY/WX    TMP DP  RH WIND       PRES   REMARKS
GOODLAND KS    MOSUNNY   71  43  36 N9        30.16F
HILL CITY KS   SUNNY     79  41  25 N13       30.09F
IMPERIAL NEB   MOSUNNY   77  36  22 NW17G26   30.12F
MCCOOK NEB     MOSUNNY   80  40  23 NW16G22   30.08F
AKRON CO       MOSUNNY   69  34  27 VRB5G18   30.22F
BURLINGTON CO  MOSUNNY   71  41  33 N13G18    30.21S
LIMON CO       PTSUNNY   65  37  35 NW15G22   30.27F
$$

...UNOFFICIAL OBSERVATIONS...

CITY           SKY/WX    TMP DP  RH WIND       PRES   REMARKS
LENORA KS        N/A     76  32  20 MISG        N/A
NORTON KS      PTSUNNY   73  43  33 NW10      30.07F
SHARON SPRINGS   N/A     74  44  34 N8G24       N/A
TRENTON NEB      N/A     74  32  21 NW7         N/A
$$




USA.gov is the U.S. government's official web portal to all federal, state and local government web resources and services.